www.pogodaiklimat.ru

Погода и климат >> Архив погоды >> Россия >> Калмыкия >> Элиста


АРХИВ ПОГОДЫ в Элисте

Время (UTC), дата Ветер
(напр.,м/с)
 
Видим.   Явления Облачность Т
(С)
Тd
(С)
f
(%)
Тe
(С)
Тes
(С)
Комфортность P
(гПа)
Po
(гПа)
Тmin
(С)
Tmax
(С)
R
(мм)
R24
(мм)
S
(см)
06 18.08 ЮВ 6 20 км ясно +25.8 +11.9 42 +27 +31 жарко 1009.2 987.0
09 18.08 ЮВ 5 20 км 3/3 1000 м
[Cu hum Ac trans]
+32.2 +11.1 27 +32 +38 жарко 1008.0 986.3
12 18.08 ЮВ 10-14
{18}
20 км 3/3 600 м
[Cu hum]
+35.6 +1.8 12 +32 +33 жарко 1007.0 985.5
15 18.08 ЮВ 9-13
{16}
10 км пыльный позёмок 1/0
[Ac trans]
+32.3 -1.5 11 +29 +29 жарко 1008.6 986.8 +35.8
18 18.08 В 5
{13}
10 км 1/0
[Ac trans]
+26.9 +4.3 23 +26 +26 жарко 1010.3 988.1
21 18.08 В 6 10 км ясно +23.3 +8.8 40 +25 +25 комфорт 1010.7 988.3
00 19.08 В 2 10 км 9/5 600 м
[Sc Ac trans]
+20.8 +10.5 52 +23 +23 комфорт 1011.5 988.9
03 19.08 В 2 20 км 3/1 600 м
[Sc Ac trans]
+20.3 +10.0 52 +22 +23 комфорт 1012.2 989.5 +19.6
06 19.08 В 1 20 км 6/0
[Ac trans]
+25.7 +12.9 45 +28 +34 жарко 1012.9 990.6
09 19.08 Ю 3 20 км 3/0
[Ac trans]
+31.3 +10.2 27 +31 +41 жарко 1012.8 990.9
12 19.08 ЮЗ 2 20 км 8/6 1000 м
[Cu hum Ac trans]
+34.0 +9.0 22 +33 +35 жарко 1012.5 990.8
15 19.08 Ю 1 20 км 6/3 1000 м
[Cu hum Ac trans]
+33.4 +10.8 25 +33 +33 жарко 1012.7 991.0 +34.6
18 19.08 С 4 10 км ясно +28.1 +9.4 31 +28 +28 жарко 1014.6 992.4
21 19.08 ЮВ 4 10 км 1/0
[Ac trans]
+25.5 +7.5 32 +26 +26 жарко 1015.5 993.1
00 20.08 ЮВ 4 10 км 1/0
[Ac trans]
+20.5 +12.9 62 +23 +23 комфорт 1016.3 993.5
03 20.08 В 2 20 км 8/3 600 м
[Sc Ac trans]
+19.8 +14.0 69 +22 +22 комфорт 1016.9 994.1 +18.8
06 20.08 ЮВ 8-10
{10}
20 км 9/5 600 м
[Cu hum Ac trans Ci fib]
+28.7 +8.0 27 +28 +29 жарко 1016.8 994.6
09 20.08 ЮВ 8-13
{13}
20 км 8/4 1000 м
[Cu hum Ac trans Ci fib]
+34.9 +1.2 12 +32 +33 жарко 1015.4 993.7
12 20.08 ЮВ 7-12
{14}
20 км 6/5 1000 м
[Cu hum Ac trans]
+37.6 +0.9 10 +34 +35 очень
жарко
1013.8 992.3
15 20.08 ЮВ 6
{13}
20 км 4/1 1000 м
[Cu hum Ac trans Ci fib]
+34.6 +0.2 11 +31 +31 жарко 1014.7 992.9 +37.8
18 20.08 ЮВ 5
{10}
10 км ясно +28.3 +3.2 20 +27 +27 жарко 1016.0 993.8
21 20.08 В 3 10 км ясно +23.9 +5.5 30 +24 +24 комфорт 1016.3 993.8
00 21.08 В 4 10 км ясно +20.2 +9.8 51 +22 +22 комфорт 1016.7 993.9
03 21.08 В 3 20 км ясно +20.1 +10.7 55 +22 +22 комфорт 1016.9 994.1 +19.2
06 21.08 ЮВ 4 20 км 3/0
[Ci fib]
+29.3 +6.1 23 +28 +33 жарко 1016.5 994.4
09 21.08 В 5 20 км 4/0
[Ci fib]
+33.8 +1.6 13 +31 +38 жарко 1014.9 993.1
12 21.08 В 6-11
{12}
20 км 3/0
[Ci fib]
+36.3 +0.6 11 +33 +36 жарко 1013.0 991.4
15 21.08 В 5
{11}
20 км ясно +35.0 +1.5 12 +32 +32 жарко 1012.2 990.6 +36.8
18 21.08 ЮВ 4 10 км ясно +28.8 -0.6 15 +26 +26 жарко 1013.3 991.2
21 21.08 В 2 10 км ясно +26.1 +0.1 18 +24 +24 комфорт 1013.8 991.5
00 22.08 СВ 3 10 км ясно +24.2 +0.8 21 +23 +23 комфорт 1013.5 991.0
03 22.08 СВ 4 20 км 3/0
[Ci fib]
+21.5 +2.0 28 +21 +22 комфорт 1014.1 991.5 +20.6
06 22.08 В 4 20 км ясно +28.9 +8.3 27 +28 +34 жарко 1013.7 991.6
09 22.08 СВ 5 20 км ясно +34.8 +4.6 15 +32 +40 жарко 1012.5 990.8
12 22.08 В 6
{11}
20 км ясно +36.9 +0.2 10 +33 +37 жарко 1011.3 989.8
15 22.08 В 4 20 км ясно +35.4 0.0 11 +32 +32 жарко 1011.0 989.4 +37.2
18 22.08 ЮВ 4 10 км ясно +28.9 +1.0 16 +26 +26 жарко 1012.9 990.8
21 22.08 В 3 10 км 3/0
[Ci fib]
+26.3 +3.1 22 +25 +25 комфорт 1012.9 990.6
00 23.08 С 3 10 км 5/0
[Ci fib]
+22.4 +4.4 31 +23 +23 комфорт 1013.7 991.1
03 23.08 СВ 3 20 км 8/0
[Ci fib]
+21.4 +6.2 37 +22 +22 комфорт 1014.5 991.8 +20.7
06 23.08 В 6 20 км 4/0
[Ac trans Ci fib]
+28.8 +10.1 31 +29 +32 жарко 1014.0 991.9
09 23.08 СВ 7-10
{11}
20 км 9/6 1000 м
[Cu hum Ac trans Ci fib]
+35.3 +2.2 13 +32 +33 жарко 1012.9 991.2
12 23.08 В 5
{13}
20 км 10/10 600 м
[Sc Ac trans]
+36.2 +1.9 12 +33 +33 жарко 1011.9 990.3
15 23.08 В 6
{12}
20 км 10/9 600 м
[Sc Ac trans]
+35.4 +2.1 12 +32 +32 жарко 1011.7 990.0 +37.2
18 23.08 В 4 10 км 6/0
[Ac trans]
+30.7 +3.2 17 +28 +28 жарко 1013.4 991.4
21 23.08 СВ 4 10 км ясно +25.7 +5.6 28 +25 +25 комфорт 1013.6 991.3
00 24.08 СВ 5 10 км ясно +24.5 +8.0 35 +25 +25 комфорт 1013.4 991.0
03 24.08 СВ 6 20 км 6/3 600 м
[Sc Ac trans]
+23.4 +5.8 32 +24 +24 комфорт 1014.0 991.5 +22.5
06 24.08 СВ 5 20 км 9/8 600 м
[Sc Ac trans]
+28.4 +6.1 24 +27 +28 жарко 1014.0 991.9
09 24.08 В 6
{10}
20 км 9/8 600 м
[Sc Ac trans Ci fib]
+33.4 +5.9 18 +31 +32 жарко 1012.5 990.8
12 24.08 В 6
{10}
20 км 10/9 600 м
[Sc Ac trans]
+36.2 +3.4 13 +33 +33 жарко 1011.5 990.0
15 24.08 В 5
{10}
20 км 10/9 600 м
[Cb cap Ac trans]
+34.5 +2.5 13 +31 +31 жарко 1012.0 990.3 +36.3
18 24.08 В 3 10 км 10/10 600 м
[Sc]
+31.2 +7.3 22 +30 +30 жарко 1013.2 991.3
21 24.08 С 2 10 км 9/8 600 м
[Sc Ac trans]
+27.3 +10.5 35 +28 +28 жарко 1013.1 990.9
00 25.08 В 4 10 км {ливн. осадки} 10/10 300 м
[Cb cap]
+25.1 +12.3 45 +27 +27 жарко 1013.2 990.9

 

Местоположение метеостанции Элиста (Калмыкия, Россия): широта 46.37 долгота 44.33 высота над уровнем моря 153 м.

В архиве по умолчанию представлена погода в Элисте за последнюю неделю. Архивные данные за месяц целиком и за предыдущие месяцы, начиная с января 2011 года, Вы можете получить, выбрав интересующий диапазон дат из раскрывающегося списка и нажав кнопку "Ввод!".


*Определитесь, кто Вы:
робот инопланетянин человек

Внимание! Время в таблицах - всемирное. Для получения местного времени необходимо прибавить поправку, которая равна 3 ч.

Смотрите также архив погоды в соседних городах и на ближайших метеорологических станциях:

Погода в Ремонтном (Ростовская область, Россия) (55 км)
Погода в Ики-Буруле (Калмыкия, Россия) (67 км)
Погода в Яшкуле (Калмыкия, Россия) (81 км)
Погода в Дивном (Ставропольский край, Россия) (91 км)
Погода в Кетченерах (Калмыкия, Россия) (107 км)
Погода в Арзгире (Ставропольский край, Россия) (108 км)
Погода в Утте (Калмыкия, Россия) (130 км)
Погода в Благодарном (Ставропольский край, Россия) (157 км)
Погода в Светлограде (Ставропольский край, Россия) (161 км)
Погода в Зимовниках (Ростовская область, Россия) (166 км)

Пояснения к столбцам:

Ветер - указаны скорость ветра в м/с - средняя за 10 мин, порывы в срок и между сроками (в фигурных скобках) и направление, откуда дует ветер: С - северный, СВ - северо-восточный, В - восточный, ЮВ - юго-восточный, Ю - южный, ЮЗ - юго-западный, З - западный, СЗ - северо-западный.
Видимость - горизонтальная дальность видимости в метрах или километрах. При видимости от 1 до 10 км при отсутствии осадков обычно наблюдается дымка, при ухудшении видимости до 1 км и менее - туман. В сухую погоду видимость может ухудшаться дымом, пылью или мглою.
Явления - указаны атмосферные явления, наблюдавшиеся в срок или в последний час перед сроком; фигурными скобками обозначены явления, наблюдавшиеся между сроками (за 1-3 часа до срока); квадратными скобками обозначены град или гололедные отложения с указанием их диаметра в мм.
Облачность - указаны через наклонную черту общая и нижняя облачность в баллах и высота нижней границы облаков в метрах; квадратными скобками обозначены формы облаков: Ci - перистые, Cs - перисто-слоистые, Cc - перисто-кучевые, Ac - высококучевые, As - высокослоистые, Sc - слоисто-кучевые, Ns - слоисто-дождевые, Cu - кучевые, Cb - кучево-дождевые. Подробнее классификацию облаков см. в Атласе облаков (PDF).
T - Температура воздуха - температура, измеренная на высоте 2 м над землей.
Td - Температура точки росы - температура, при понижении до которой содержащийся в воздухе водяной пар достигнет насыщения.
f - Относительная влажность воздуха - влажноcть воздуха, измеренная на высоте 2 м над землей.
Te - Эффективная температура - температура, которую ощущает одетый по сезону человек в тени. Характеристика душности погоды. При расчете учитывается влияние влажности воздуха и скорости ветра на теплоощущения человека.
Tes - Эффективная температура на солнце - температура, которую ощущает человек, с поправкой на солнечный нагрев. Характеристика знойности погоды. Зависит от высоты солнца над горизонтом, облачности и скорости ветра. Ночью, в пасмурную погоду, а также при ветре 12 м/с и более поправка равна нулю.
P - Атмосферное давление - приведенное к уровню моря атмосферное давление.
Po - Атмосферное давление - измеренное на уровне метеостанции атмосферное давление.
Tmin - Минимальная температура - минимум температуры воздуха на высоте 2 м над землей.
Tmax - Максимальная температура - максимум температуры воздуха на высоте 2 м над землей.
R - Количество осадков - Количество выпавших осадков за период времени, мм. При наведении курсора мыши на число - период времени, за который выпало указанное количество осадков.
R24 - Количество осадков - Количество выпавших осадков за 24 часа, мм.
S - Снежный покров - Высота снежного покрова, см. При наведении курсора мыши на число - состояние снежного покрова и степень покрытия местности в баллах.